Stephenville, TX

1:32 PM CDT on June 25, 2017 (GMT -0500)
Clark Municipal

Weather History for KSEP - October, 2011

Change the Weather History Date:

Tuesday, October 18, 2011

  Actual Average Record
Temperature  
Mean Temperature 58 °F -  
Max Temperature 64 °F 76 °F 91 °F (2016)
Min Temperature 51 °F 53 °F 29 °F (1948)
Degree Days  
Heating Degree Days 8    
Growing Degree Days 8 (Base 50)    
Moisture  
Dew Point 34 °F    
Average Humidity 41    
Maximum Humidity 54    
Minimum Humidity 26    
Precipitation  
Precipitation 0.00 in - - ()
Sea Level Pressure  
Sea Level Pressure 30.07 in    
Wind  
Wind Speed 19 mph (NNW)    
Max Wind Speed 26 mph    
Max Gust Speed 36 mph    
Visibility 10 miles    
Events      
Averages and records for this station are not official NWS values.
T = Trace of Precipitation, MM = Missing Value Source: NWS Daily Summary

Daily Weather History Graph

Daily Weather History Graph

Search for Another Location

Airport or City:

Trip Planner

Search our weather history database for the weather conditions in past years. The results will help you decide how hot, cold, wet, or windy it might be!

Date:

Astronomy

Oct. 18, 2011 Rise Set
Actual Time 7:38 AM CDT 6:56 PM CDT
Civil Twilight 7:13 AM CDT 7:21 PM CDT
Nautical Twilight 6:45 AM CDT 7:50 PM CDT
Astronomical Twilight 6:16 AM CDT 8:18 PM CDT
Moon 11:50 PM CDT (10/18) 1:18 PM CDT (10/18)
Length of Visible Light 12h 08m
Length of Day
11h 18m
Waning Gibbous, 64% of the Moon is Illuminated
Oct 18
Waning Gibbous
Oct 19
Last Quarter
Oct 26
New
Nov 2
First Quarter
Nov 10
Full

Hourly Weather History & Observations

Time (CDT) Temp. Dew Point Humidity Pressure Visibility Wind Dir Wind Speed Gust Speed Precip Events Conditions
12:15 AM 62.6 °F 44.6 °F 52% 29.91 in 10.0 mi NNW 15.0 mph 25.3 mph N/A   Clear
12:35 AM 62.6 °F 42.8 °F 48% 29.92 in 10.0 mi NNW 17.3 mph 26.5 mph N/A   Scattered Clouds
12:55 AM 62.6 °F 42.8 °F 48% 29.93 in 10.0 mi NNW 19.6 mph 23.0 mph N/A   Clear
1:15 AM 62.6 °F 42.8 °F 48% 29.94 in 10.0 mi North 12.7 mph 18.4 mph N/A   Clear
1:35 AM 60.8 °F 41.0 °F 48% 29.94 in 10.0 mi NNW 17.3 mph 29.9 mph N/A   Clear
1:55 AM 60.8 °F 41.0 °F 48% 29.96 in 10.0 mi NNW 18.4 mph 21.9 mph N/A   Clear
2:15 AM 59.0 °F 41.0 °F 51% 29.96 in 10.0 mi North 13.8 mph - N/A   Clear
2:35 AM 59.0 °F 35.6 °F 42% 29.96 in 10.0 mi North 24.2 mph 29.9 mph N/A   Clear
2:55 AM 57.2 °F 33.8 °F 41% 29.97 in 10.0 mi NNW 15.0 mph 25.3 mph N/A   Clear
3:15 AM 55.4 °F 32.0 °F 41% 29.98 in 10.0 mi NNW 19.6 mph 32.2 mph N/A   Clear
3:35 AM 55.4 °F 32.0 °F 41% 30.00 in 10.0 mi NNW 21.9 mph 28.8 mph N/A   Clear
3:55 AM 55.4 °F 32.0 °F 41% 30.00 in 10.0 mi NNW 15.0 mph 23.0 mph N/A   Clear
4:15 AM 55.4 °F 30.2 °F 38% 30.01 in 10.0 mi North 18.4 mph 28.8 mph N/A   Clear
4:35 AM 53.6 °F 28.4 °F 38% 30.01 in 10.0 mi North 25.3 mph 34.5 mph N/A   Clear
4:55 AM 53.6 °F 28.4 °F 38% 30.02 in 10.0 mi NNW 24.2 mph 32.2 mph N/A   Clear
5:15 AM 53.6 °F 30.2 °F 41% 30.02 in 10.0 mi NNW 21.9 mph 29.9 mph N/A   Clear
5:35 AM 53.6 °F 30.2 °F 41% 30.02 in 10.0 mi North 26.5 mph 33.4 mph N/A   Clear
5:55 AM 53.6 °F 32.0 °F 44% 30.04 in 10.0 mi NNW 20.7 mph 25.3 mph N/A   Clear
6:15 AM 53.6 °F 32.0 °F 44% 30.05 in 10.0 mi NNW 21.9 mph 27.6 mph N/A   Clear
6:35 AM 53.6 °F 33.8 °F 47% 30.06 in 10.0 mi NNW 20.7 mph 27.6 mph N/A   Clear
6:55 AM 53.6 °F 33.8 °F 47% 30.06 in 10.0 mi North 21.9 mph 29.9 mph N/A   Clear
7:15 AM 51.8 °F 32.0 °F 47% 30.07 in 10.0 mi NNW 20.7 mph 28.8 mph N/A   Clear
7:35 AM 51.8 °F 32.0 °F 47% 30.08 in 10.0 mi NNW 19.6 mph 26.5 mph N/A   Clear
7:55 AM 51.8 °F 32.0 °F 47% 30.08 in 10.0 mi NNW 13.8 mph 23.0 mph N/A   Clear
8:15 AM 51.8 °F 32.0 °F 47% 30.09 in 10.0 mi NNW 15.0 mph 23.0 mph N/A   Clear
8:35 AM 51.8 °F 33.8 °F 50% 30.10 in 10.0 mi NNW 18.4 mph 26.5 mph N/A   Clear
8:55 AM 53.6 °F 35.6 °F 51% 30.11 in 10.0 mi NNW 23.0 mph 27.6 mph N/A   Clear
9:15 AM 53.6 °F 35.6 °F 51% 30.12 in 10.0 mi NNW 21.9 mph 29.9 mph N/A   Clear
9:35 AM 53.6 °F 37.4 °F 54% 30.12 in 10.0 mi NNW 23.0 mph 29.9 mph N/A   Clear
9:55 AM 55.4 °F 37.4 °F 51% 30.14 in 10.0 mi NNW 23.0 mph 35.7 mph N/A   Clear
10:15 AM 55.4 °F 37.4 °F 51% 30.14 in 10.0 mi NNW 21.9 mph 31.1 mph N/A   Clear
10:35 AM 55.4 °F 37.4 °F 51% 30.14 in 10.0 mi North 23.0 mph 33.4 mph N/A   Clear
10:55 AM 55.4 °F 37.4 °F 51% 30.15 in 10.0 mi NNW 19.6 mph 27.6 mph N/A   Clear
11:15 AM 57.2 °F 37.4 °F 48% 30.16 in 10.0 mi NNW 23.0 mph 31.1 mph N/A   Clear
11:35 AM 55.4 °F 37.4 °F 51% 30.16 in 10.0 mi NNW 25.3 mph 31.1 mph N/A   Clear
11:55 AM 59.0 °F 37.4 °F 45% 30.17 in 10.0 mi NNW 18.4 mph 35.7 mph N/A   Scattered Clouds
12:15 PM 59.0 °F 37.4 °F 45% 30.16 in 10.0 mi North 24.2 mph 29.9 mph N/A   Scattered Clouds
12:35 PM 60.8 °F 37.4 °F 42% 30.16 in 10.0 mi NNW 24.2 mph 29.9 mph N/A   Scattered Clouds
12:55 PM 60.8 °F 37.4 °F 42% 30.15 in 10.0 mi NNW 23.0 mph 28.8 mph N/A   Clear
1:15 PM 60.8 °F 37.4 °F 42% 30.14 in 10.0 mi NNW 21.9 mph 29.9 mph N/A   Clear
1:35 PM 60.8 °F 35.6 °F 39% 30.14 in 10.0 mi NNW 15.0 mph 29.9 mph N/A   Clear
1:55 PM 62.6 °F 35.6 °F 37% 30.13 in 10.0 mi NNW 15.0 mph 27.6 mph N/A   Clear
2:15 PM 62.6 °F 35.6 °F 37% 30.12 in 10.0 mi NNW 16.1 mph 24.2 mph N/A   Clear
2:35 PM 62.6 °F 33.8 °F 34% 30.11 in 10.0 mi NNW 18.4 mph 26.5 mph N/A   Clear
2:55 PM 64.4 °F 33.8 °F 32% 30.11 in 10.0 mi NNW 23.0 mph 28.8 mph N/A   Clear
3:15 PM 64.4 °F 33.8 °F 32% 30.10 in 10.0 mi North 16.1 mph 25.3 mph N/A   Clear
3:35 PM 64.4 °F 32.0 °F 30% 30.10 in 10.0 mi NNW 21.9 mph 27.6 mph N/A   Clear
3:55 PM 64.4 °F 32.0 °F 30% 30.09 in 10.0 mi North 18.4 mph 27.6 mph N/A   Clear
4:15 PM 64.4 °F 32.0 °F 30% 30.09 in 10.0 mi NW 17.3 mph 28.8 mph N/A   Clear
4:35 PM 64.4 °F 32.0 °F 30% 30.09 in 10.0 mi NW 19.6 mph 28.8 mph N/A   Clear
4:55 PM 64.4 °F 32.0 °F 30% 30.09 in 10.0 mi NNW 23.0 mph 27.6 mph N/A   Clear
5:15 PM 64.4 °F 30.2 °F 28% 30.09 in 10.0 mi NNW 16.1 mph 25.3 mph N/A   Clear
5:35 PM 64.4 °F 28.4 °F 26% 30.09 in 10.0 mi NNW 18.4 mph 26.5 mph N/A   Clear
5:55 PM 64.4 °F 28.4 °F 26% 30.09 in 10.0 mi NNW 13.8 mph - N/A   Clear
6:15 PM 64.4 °F 28.4 °F 26% 30.09 in 10.0 mi NW 11.5 mph 23.0 mph N/A   Clear
6:35 PM 62.6 °F 28.4 °F 27% 30.09 in 10.0 mi NNW 11.5 mph 23.0 mph N/A   Clear
6:55 PM 62.6 °F 28.4 °F 27% 30.09 in 10.0 mi NNW 11.5 mph 17.3 mph N/A   Clear
7:15 PM 60.8 °F 28.4 °F 29% 30.10 in 10.0 mi NNW 10.4 mph 17.3 mph N/A   Clear
7:35 PM 60.8 °F 28.4 °F 29% 30.11 in 10.0 mi NNW 6.9 mph - N/A   Clear
7:55 PM 59.0 °F 28.4 °F 31% 30.11 in 10.0 mi NNW 6.9 mph - N/A   Clear
8:15 PM 59.0 °F 30.2 °F 34% 30.12 in 10.0 mi NNW 5.8 mph - N/A   Clear
8:35 PM 57.2 °F 30.2 °F 36% 30.12 in 10.0 mi NNW 4.6 mph - N/A   Clear
8:55 PM 55.4 °F 32.0 °F 41% 30.12 in 10.0 mi NW 3.5 mph - N/A   Clear
9:15 PM 53.6 °F 32.0 °F 44% 30.13 in 10.0 mi NW 4.6 mph - N/A   Clear
9:35 PM 53.6 °F 32.0 °F 44% 30.13 in 10.0 mi NW 3.5 mph - N/A   Clear
9:55 PM 53.6 °F 32.0 °F 44% 30.14 in 10.0 mi NW 5.8 mph - N/A   Clear
10:15 PM 53.6 °F 32.0 °F 44% 30.14 in 10.0 mi NW 4.6 mph - N/A   Clear
10:35 PM 53.6 °F 32.0 °F 44% 30.14 in 10.0 mi NW 4.6 mph - N/A   Clear
10:55 PM 53.6 °F 30.2 °F 41% 30.15 in 10.0 mi NNW 9.2 mph - N/A   Clear
11:15 PM 55.4 °F 30.2 °F 38% 30.15 in 10.0 mi NNW 9.2 mph - N/A   Clear
11:35 PM 53.6 °F 30.2 °F 41% 30.15 in 10.0 mi NNW 9.2 mph - N/A   Clear
11:55 PM 53.6 °F 30.2 °F 41% 30.15 in 10.0 mi NNW 5.8 mph - N/A   Clear